FIN9LK ESGG-EFHK

Flight info

Callsign FIN9LK
Flight time 1h 18m
Altitude 37000
Route LABAN N873 DETSO DCT TUSNI DCT RIRIP Y364 LAKUT
Aircraft A320/M-SDE3FGHIRWY/LB1

Departure

Time 2026-04-26 13:57
Airport Göteborg Landvetter Airport (ESGG)

Arrival

Time 2026-04-26 15:15
Airport Helsinki Vantaa Airport (EFHK)
Time Latitude Longitude Altitude Speed Heading
2026-04-26 13:26 57.66887 12.29426 516 ft 0 kts 116°
2026-04-26 13:49 57.66890 12.29412 516 ft 3 kts 119°
2026-04-26 13:50 57.66901 12.29381 516 ft 3 kts 132°
2026-04-26 13:50 57.66915 12.29357 516 ft 3 kts 149°
2026-04-26 13:50 57.66933 12.29342 516 ft 3 kts 169°
2026-04-26 13:50 57.66953 12.29339 516 ft 3 kts 187°
2026-04-26 13:51 57.66973 12.29346 516 ft 3 kts 200°
2026-04-26 13:51 57.66991 12.29361 516 ft 3 kts 207°
2026-04-26 13:51 57.66999 12.29368 516 ft 1 kts 207°
2026-04-26 13:53 57.66992 12.29362 516 ft 4 kts 207°
2026-04-26 13:53 57.66981 12.29327 516 ft 5 kts 260°
2026-04-26 13:53 57.66998 12.29248 516 ft 8 kts 296°
2026-04-26 13:54 57.67025 12.29183 516 ft 8 kts 338°
2026-04-26 13:54 57.67109 12.29247 516 ft 15 kts 27°
2026-04-26 13:54 57.67229 12.29353 516 ft 23 kts 26°
2026-04-26 13:55 57.67459 12.29563 516 ft 11 kts 25°
2026-04-26 13:55 57.67519 12.29597 516 ft 9 kts 355°
2026-04-26 13:55 57.67590 12.29282 516 ft 14 kts 264°
2026-04-26 13:56 57.67582 12.29164 516 ft 9 kts 243°
2026-04-26 13:56 57.67523 12.29107 516 ft 14 kts 205°
2026-04-26 13:56 57.67219 12.28826 514 ft 85 kts 206°
2026-04-26 13:56 57.66497 12.28175 512 ft 143 kts 206°
2026-04-26 13:57 57.65497 12.27252 792 ft 162 kts 211°
2026-04-26 13:57 57.64496 12.26308 1551 ft 161 kts 211°
2026-04-26 13:57 57.63456 12.25366 2096 ft 175 kts 210°
2026-04-26 13:57 57.62162 12.25061 2359 ft 209 kts 171°
2026-04-26 13:58 57.60721 12.25971 2824 ft 224 kts 161°
2026-04-26 13:58 57.59266 12.27163 3447 ft 235 kts 154°
2026-04-26 13:58 57.58029 12.29342 3785 ft 261 kts 118°
2026-04-26 13:58 57.57591 12.32686 4406 ft 271 kts 82°
2026-04-26 13:59 57.58158 12.36004 4903 ft 269 kts 57°
2026-04-26 13:59 57.59134 12.38976 5310 ft 271 kts 52°
2026-04-26 13:59 57.60166 12.41873 6347 ft 267 kts 52°
2026-04-26 14:00 57.63385 12.50441 8843 ft 275 kts 47°
2026-04-26 14:00 57.64591 12.53251 9643 ft 279 kts 45°
2026-04-26 14:00 57.65409 12.55117 10191 ft 281 kts 45°
2026-04-26 14:01 57.67121 12.58998 10780 ft 303 kts 45°
2026-04-26 14:01 57.68512 12.62159 11016 ft 324 kts 45°
2026-04-26 14:01 57.69937 12.65441 11586 ft 332 kts 45°
2026-04-26 14:01 57.71410 12.68880 12291 ft 337 kts 45°
2026-04-26 14:02 57.72882 12.72341 13001 ft 341 kts 45°
2026-04-26 14:02 57.74348 12.75805 13696 ft 345 kts 45°
2026-04-26 14:02 57.75850 12.79360 14359 ft 349 kts 45°
2026-04-26 14:02 57.77370 12.82957 14959 ft 353 kts 44°
2026-04-26 14:03 57.78899 12.86574 15611 ft 356 kts 44°
2026-04-26 14:03 57.80455 12.90249 16222 ft 360 kts 44°
2026-04-26 14:03 57.82017 12.93938 16823 ft 364 kts 44°
2026-04-26 14:03 57.83600 12.97692 17439 ft 367 kts 44°
2026-04-26 14:04 57.85186 13.01460 17998 ft 371 kts 43°
2026-04-26 14:04 57.86795 13.05288 18576 ft 375 kts 43°
2026-04-26 14:04 57.88418 13.09154 19081 ft 378 kts 43°
2026-04-26 14:04 57.90051 13.13055 19596 ft 381 kts 43°
2026-04-26 14:05 57.91694 13.16984 20120 ft 384 kts 43°
2026-04-26 14:05 57.93348 13.20953 20660 ft 387 kts 43°
2026-04-26 14:05 57.95010 13.24954 21190 ft 389 kts 43°
2026-04-26 14:05 57.96684 13.28985 21714 ft 392 kts 43°
2026-04-26 14:06 57.98373 13.33045 22232 ft 395 kts 43°
2026-04-26 14:06 58.00074 13.37143 22755 ft 398 kts 43°
2026-04-26 14:06 58.01783 13.41262 23241 ft 401 kts 43°
2026-04-26 14:06 58.03503 13.45425 23729 ft 404 kts 43°
2026-04-26 14:07 58.05229 13.49614 24135 ft 406 kts 43°
2026-04-26 14:07 58.06967 13.53844 24531 ft 409 kts 43°
2026-04-26 14:07 58.08717 13.58107 24919 ft 411 kts 43°
2026-04-26 14:07 58.10477 13.62395 25297 ft 413 kts 43°
2026-04-26 14:08 58.12240 13.66696 25730 ft 415 kts 43°
2026-04-26 14:08 58.14010 13.71019 26117 ft 416 kts 43°
2026-04-26 14:08 58.15785 13.75368 26471 ft 419 kts 43°
2026-04-26 14:08 58.17546 13.79690 26811 ft 421 kts 43°
2026-04-26 14:09 58.19358 13.84146 27162 ft 423 kts 43°
2026-04-26 14:09 58.21136 13.88522 27499 ft 425 kts 43°
2026-04-26 14:09 58.22942 13.92976 27834 ft 428 kts 44°
2026-04-26 14:09 58.24761 13.97481 28147 ft 430 kts 44°
2026-04-26 14:10 58.26580 14.01995 28506 ft 432 kts 44°
2026-04-26 14:10 58.28410 14.06543 28838 ft 434 kts 44°
2026-04-26 14:10 58.30245 14.11111 29151 ft 436 kts 44°
2026-04-26 14:10 58.32085 14.15696 29452 ft 438 kts 44°
2026-04-26 14:11 58.35794 14.24961 30020 ft 442 kts 44°
2026-04-26 14:11 58.37652 14.29627 30274 ft 444 kts 44°
2026-04-26 14:11 58.39524 14.34327 30498 ft 445 kts 44°
2026-04-26 14:12 58.41397 14.39037 30709 ft 447 kts 44°
2026-04-26 14:12 58.43284 14.43790 30914 ft 448 kts 44°
2026-04-26 14:12 58.45168 14.48548 31205 ft 449 kts 44°
2026-04-26 14:12 58.47047 14.53313 31528 ft 448 kts 44°
2026-04-26 14:13 58.50776 14.62804 32194 ft 445 kts 44°
2026-04-26 14:13 58.52627 14.67522 32502 ft 443 kts 44°
2026-04-26 14:13 58.54473 14.72240 32796 ft 443 kts 44°
2026-04-26 14:14 58.56323 14.76972 33076 ft 442 kts 44°
2026-04-26 14:14 58.58162 14.81683 33351 ft 442 kts 44°
2026-04-26 14:14 58.60004 14.86403 33628 ft 442 kts 44°
2026-04-26 14:14 58.61868 14.91186 33908 ft 442 kts 44°
2026-04-26 14:15 58.63716 14.95939 34178 ft 441 kts 44°
2026-04-26 14:15 58.65549 15.00671 34413 ft 441 kts 44°
2026-04-26 14:15 58.67377 15.05400 34637 ft 441 kts 45°
2026-04-26 14:15 58.69203 15.10141 34850 ft 441 kts 45°
2026-04-26 14:16 58.71029 15.14889 35068 ft 441 kts 45°
2026-04-26 14:16 58.72848 15.19642 35284 ft 441 kts 45°
2026-04-26 14:16 58.74667 15.24405 35476 ft 441 kts 45°
2026-04-26 14:16 58.76487 15.29169 35668 ft 441 kts 45°
2026-04-26 14:17 58.78309 15.33930 35907 ft 441 kts 45°
2026-04-26 14:17 58.80128 15.38695 36095 ft 441 kts 45°
2026-04-26 14:17 58.81939 15.43457 36272 ft 441 kts 45°
2026-04-26 14:17 58.83750 15.48239 36442 ft 441 kts 45°
2026-04-26 14:18 58.85558 15.53024 36606 ft 441 kts 45°
2026-04-26 14:18 58.87364 15.57810 36754 ft 441 kts 45°
2026-04-26 14:18 58.89173 15.62603 36908 ft 441 kts 45°
2026-04-26 14:18 58.90986 15.67408 37078 ft 441 kts 45°
2026-04-26 14:19 58.92714 15.71992 37152 ft 441 kts 46°
2026-04-26 14:19 58.95325 15.78822 37142 ft 442 kts 52°
2026-04-26 14:19 58.96675 15.84601 37151 ft 459 kts 65°
2026-04-26 14:20 58.97557 15.89917 37131 ft 455 kts 57°
2026-04-26 14:20 58.98336 15.92807 37136 ft 443 kts 48°
2026-04-26 14:20 59.00129 15.97102 37137 ft 431 kts 37°
2026-04-26 14:21 59.04407 16.05125 37131 ft 430 kts 36°
2026-04-26 14:21 59.07392 16.11361 37132 ft 438 kts 44°
2026-04-26 14:22 59.11107 16.21326 37158 ft 441 kts 46°
2026-04-26 14:22 59.14049 16.29493 37150 ft 441 kts 46°
2026-04-26 14:23 59.17584 16.39275 37128 ft 441 kts 46°
2026-04-26 14:23 59.21132 16.49019 37122 ft 441 kts 46°
2026-04-26 14:24 59.24680 16.58775 37113 ft 441 kts 46°
2026-04-26 14:24 59.28227 16.68583 37112 ft 441 kts 46°
2026-04-26 14:25 59.31763 16.78426 37111 ft 442 kts 46°
2026-04-26 14:25 59.34778 16.89093 37104 ft 454 kts 58°
2026-04-26 14:26 59.37320 17.00445 37132 ft 455 kts 58°
2026-04-26 14:26 59.39790 17.11864 37079 ft 454 kts 59°
2026-04-26 14:27 59.42166 17.23354 37076 ft 455 kts 60°
2026-04-26 14:27 59.44510 17.34884 37075 ft 455 kts 60°
2026-04-26 14:28 59.46868 17.46445 37074 ft 456 kts 60°
2026-04-26 14:28 59.49229 17.58024 37090 ft 456 kts 60°
2026-04-26 14:29 59.51582 17.69616 37081 ft 457 kts 60°
2026-04-26 14:29 59.53931 17.81267 37115 ft 457 kts 61°
2026-04-26 14:30 59.56244 17.92836 37055 ft 453 kts 61°
2026-04-26 14:30 59.58340 18.03350 37057 ft 453 kts 61°
2026-04-26 14:31 59.60610 18.14791 37063 ft 454 kts 61°
2026-04-26 14:31 59.62943 18.26625 37068 ft 454 kts 61°
2026-04-26 14:32 59.65216 18.38268 37073 ft 454 kts 61°
2026-04-26 14:32 59.67466 18.49821 37074 ft 454 kts 61°
2026-04-26 14:33 59.69725 18.61508 37072 ft 454 kts 62°
2026-04-26 14:33 59.71972 18.73191 37097 ft 453 kts 62°
2026-04-26 14:34 59.74188 18.84782 37089 ft 452 kts 62°
2026-04-26 14:34 59.76415 18.96488 37079 ft 452 kts 62°
2026-04-26 14:35 59.78632 19.08205 37082 ft 452 kts 62°
2026-04-26 14:35 59.80782 19.19961 37077 ft 454 kts 64°
2026-04-26 14:36 59.82683 19.32017 37066 ft 456 kts 66°
2026-04-26 14:36 59.84451 19.44110 37061 ft 456 kts 67°
2026-04-26 14:37 59.86251 19.56198 37058 ft 456 kts 66°
2026-04-26 14:37 59.88089 19.68275 37059 ft 455 kts 66°
2026-04-26 14:38 59.89919 19.80354 37052 ft 455 kts 66°
2026-04-26 14:38 59.91715 19.92348 37048 ft 455 kts 66°
2026-04-26 14:39 59.93526 20.04512 37042 ft 455 kts 67°
2026-04-26 14:39 59.95291 20.16548 37040 ft 455 kts 67°
2026-04-26 14:40 59.97068 20.28671 37058 ft 455 kts 67°
2026-04-26 14:40 59.98841 20.40853 37047 ft 455 kts 67°
2026-04-26 14:41 60.00595 20.53028 37039 ft 455 kts 67°
2026-04-26 14:41 60.02334 20.65209 37028 ft 455 kts 67°
2026-04-26 14:42 60.04063 20.77401 37026 ft 455 kts 68°
2026-04-26 14:42 60.05783 20.89576 37007 ft 455 kts 68°
2026-04-26 14:43 60.07494 21.01796 37009 ft 455 kts 68°
2026-04-26 14:43 60.09190 21.14015 37034 ft 456 kts 68°
2026-04-26 14:44 60.10886 21.26290 37018 ft 457 kts 68°
2026-04-26 14:44 60.12563 21.38574 37009 ft 458 kts 68°
2026-04-26 14:45 60.14232 21.50905 37008 ft 458 kts 68°
2026-04-26 14:45 60.15886 21.63232 37010 ft 458 kts 69°
2026-04-26 14:46 60.17542 21.75634 36686 ft 458 kts 68°
2026-04-26 14:46 60.18363 21.81817 35957 ft 460 kts 68°
2026-04-26 14:46 60.19188 21.88058 35177 ft 463 kts 68°
2026-04-26 14:46 60.20018 21.94341 34422 ft 465 kts 67°
2026-04-26 14:47 60.20836 22.00597 33896 ft 460 kts 66°
2026-04-26 14:47 60.21643 22.06814 33250 ft 457 kts 66°
2026-04-26 14:47 60.22437 22.12957 32696 ft 452 kts 66°
2026-04-26 14:47 60.23212 22.18983 32128 ft 447 kts 65°
2026-04-26 14:48 60.23983 22.24987 31570 ft 443 kts 65°
2026-04-26 14:48 60.24745 22.30948 31030 ft 438 kts 64°
2026-04-26 14:48 60.25503 22.36866 30467 ft 435 kts 64°
2026-04-26 14:48 60.26251 22.42729 29949 ft 430 kts 63°
2026-04-26 14:49 60.26986 22.48534 29370 ft 425 kts 63°
2026-04-26 14:49 60.27711 22.54279 28850 ft 419 kts 63°
2026-04-26 14:49 60.28377 22.59557 28382 ft 414 kts 63°
2026-04-26 14:49 60.29058 22.64942 27971 ft 408 kts 64°
2026-04-26 14:50 60.29444 22.68006 27676 ft 406 kts 64°
2026-04-26 14:50 60.30046 22.72757 27265 ft 403 kts 66°
2026-04-26 14:50 60.30855 22.79226 26715 ft 398 kts 66°
2026-04-26 14:50 60.31432 22.83892 26334 ft 394 kts 66°
2026-04-26 14:51 60.32068 22.89060 25864 ft 390 kts 66°
2026-04-26 14:51 60.32723 22.94417 25411 ft 386 kts 66°
2026-04-26 14:51 60.33360 22.99646 24974 ft 382 kts 66°
2026-04-26 14:51 60.33991 23.04849 24530 ft 380 kts 66°
2026-04-26 14:52 60.34404 23.08255 24230 ft 378 kts 66°
2026-04-26 14:52 60.35029 23.13407 23774 ft 375 kts 66°
2026-04-26 14:52 60.35647 23.18511 23266 ft 373 kts 66°
2026-04-26 14:52 60.36260 23.23581 22781 ft 370 kts 67°
2026-04-26 14:53 60.36867 23.28616 22319 ft 366 kts 67°
2026-04-26 14:53 60.37464 23.33582 21867 ft 363 kts 67°
2026-04-26 14:53 60.38054 23.38520 21416 ft 359 kts 68°
2026-04-26 14:53 60.38635 23.43418 20971 ft 356 kts 68°
2026-04-26 14:54 60.39208 23.48267 20523 ft 353 kts 68°
2026-04-26 14:54 60.39773 23.53062 20103 ft 351 kts 69°
2026-04-26 14:54 60.40340 23.57887 19628 ft 349 kts 69°
2026-04-26 14:54 60.40899 23.62640 19199 ft 347 kts 69°
2026-04-26 14:55 60.41456 23.67382 18789 ft 345 kts 71°
2026-04-26 14:55 60.42005 23.72085 18342 ft 343 kts 71°
2026-04-26 14:55 60.42548 23.76784 17887 ft 341 kts 71°
2026-04-26 14:55 60.43083 23.81429 17463 ft 338 kts 71°
2026-04-26 14:56 60.43613 23.86035 17034 ft 334 kts 71°
2026-04-26 14:56 60.43983 23.90689 16635 ft 335 kts 77°
2026-04-26 14:56 60.44255 23.95351 16230 ft 332 kts 77°
2026-04-26 14:56 60.44521 23.99967 15906 ft 327 kts 77°
2026-04-26 14:57 60.44776 24.04468 15768 ft 317 kts 77°
2026-04-26 14:57 60.45024 24.08853 15543 ft 310 kts 77°
2026-04-26 14:57 60.45274 24.13223 15079 ft 311 kts 77°
2026-04-26 14:57 60.45518 24.17526 14779 ft 307 kts 77°
2026-04-26 14:58 60.45699 24.21836 14420 ft 310 kts 84°
2026-04-26 14:58 60.45445 24.26201 14074 ft 316 kts 98°
2026-04-26 14:58 60.44707 24.30436 13759 ft 320 kts 108°
2026-04-26 14:58 60.43858 24.34594 13394 ft 318 kts 107°
2026-04-26 14:59 60.43029 24.38680 13009 ft 316 kts 108°
2026-04-26 14:59 60.42192 24.42808 12708 ft 311 kts 107°
2026-04-26 14:59 60.41367 24.46890 12367 ft 309 kts 107°
2026-04-26 14:59 60.40828 24.49558 12120 ft 308 kts 107°
2026-04-26 15:00 60.39759 24.54852 11627 ft 305 kts 108°
2026-04-26 15:00 60.38945 24.58838 10980 ft 302 kts 107°
2026-04-26 15:00 60.38153 24.62708 10328 ft 301 kts 108°
2026-04-26 15:00 60.37339 24.66683 9893 ft 301 kts 108°
2026-04-26 15:01 60.36509 24.70556 9800 ft 303 kts 114°
2026-04-26 15:01 60.35294 24.74008 9777 ft 308 kts 135°
2026-04-26 15:01 60.33521 24.76355 9331 ft 305 kts 156°
2026-04-26 15:01 60.31516 24.77947 8569 ft 305 kts 160°
2026-04-26 15:02 60.29497 24.79189 7859 ft 303 kts 174°
2026-04-26 15:02 60.27415 24.79125 7149 ft 299 kts 189°
2026-04-26 15:02 60.25353 24.78632 6442 ft 298 kts 190°
2026-04-26 15:02 60.23280 24.78093 5971 ft 300 kts 191°
2026-04-26 15:03 60.21223 24.77554 5573 ft 297 kts 191°
2026-04-26 15:03 60.19176 24.77021 5221 ft 294 kts 190°
2026-04-26 15:03 60.17196 24.76493 5088 ft 281 kts 190°
2026-04-26 15:03 60.15298 24.75988 4991 ft 268 kts 191°
2026-04-26 15:04 60.13468 24.75512 5006 ft 265 kts 190°
2026-04-26 15:04 60.11639 24.75034 5010 ft 265 kts 191°
2026-04-26 15:04 60.09809 24.74561 5011 ft 265 kts 190°
2026-04-26 15:04 60.07984 24.74093 5012 ft 265 kts 190°
2026-04-26 15:05 60.06157 24.73965 4726 ft 264 kts 169°
2026-04-26 15:05 60.05020 24.74756 4483 ft 261 kts 147°
2026-04-26 15:05 60.03486 24.78203 3960 ft 243 kts 102°
2026-04-26 15:05 60.03303 24.81415 3549 ft 228 kts 75°
2026-04-26 15:06 60.03522 24.84532 3167 ft 225 kts 71°
2026-04-26 15:06 60.03795 24.87596 3007 ft 223 kts 71°
2026-04-26 15:06 60.04153 24.90580 3006 ft 220 kts 63°
2026-04-26 15:06 60.04672 24.93470 3002 ft 220 kts 60°
2026-04-26 15:07 60.05757 24.99191 3008 ft 220 kts 60°
2026-04-26 15:07 60.06303 25.02047 3009 ft 220 kts 60°
2026-04-26 15:07 60.06850 25.04907 3009 ft 219 kts 60°
2026-04-26 15:08 60.07403 25.07793 3006 ft 219 kts 60°
2026-04-26 15:08 60.07951 25.10651 3009 ft 220 kts 60°
2026-04-26 15:08 60.08498 25.13508 3008 ft 220 kts 60°
2026-04-26 15:08 60.09137 25.16261 3006 ft 212 kts 44°
2026-04-26 15:09 60.10270 25.17907 3011 ft 198 kts 14°
2026-04-26 15:09 60.11604 25.18424 3004 ft 194 kts 355°
2026-04-26 15:09 60.12902 25.17767 2917 ft 193 kts 338°
2026-04-26 15:09 60.14104 25.16545 2303 ft 199 kts 332°
2026-04-26 15:10 60.15269 25.15187 2042 ft 187 kts 332°
2026-04-26 15:10 60.16005 25.14309 1995 ft 175 kts 332°
2026-04-26 15:10 60.17363 25.12691 1999 ft 167 kts 333°
2026-04-26 15:10 60.18332 25.11637 2024 ft 150 kts 339°
2026-04-26 15:11 60.19234 25.10830 1967 ft 136 kts 332°
2026-04-26 15:11 60.20000 25.09772 1818 ft 129 kts 329°
2026-04-26 15:11 60.20768 25.08958 1829 ft 125 kts 337°
2026-04-26 15:11 60.21530 25.08152 1788 ft 123 kts 333°
2026-04-26 15:12 60.22266 25.07277 1780 ft 123 kts 333°
2026-04-26 15:12 60.23016 25.06449 1715 ft 123 kts 336°
2026-04-26 15:12 60.23791 25.05758 1654 ft 121 kts 340°
2026-04-26 15:12 60.24573 25.05096 1660 ft 122 kts 338°
2026-04-26 15:13 60.25334 25.04316 1604 ft 123 kts 335°
2026-04-26 15:13 60.26095 25.03540 1409 ft 122 kts 336°
2026-04-26 15:13 60.26861 25.02801 1194 ft 122 kts 336°
2026-04-26 15:13 60.27607 25.02012 1065 ft 122 kts 333°
2026-04-26 15:14 60.28354 25.01217 838 ft 120 kts 336°
2026-04-26 15:14 60.29104 25.00461 629 ft 121 kts 332°
2026-04-26 15:14 60.29861 24.99705 419 ft 122 kts 334°
2026-04-26 15:14 60.30604 24.98936 230 ft 118 kts 333°
2026-04-26 15:15 60.31321 24.98196 158 ft 102 kts 331°
2026-04-26 15:15 60.31806 24.97702 152 ft 54 kts 333°
2026-04-26 15:15 60.32007 24.97499 153 ft 21 kts 334°
2026-04-26 15:15 60.32123 24.97379 155 ft 18 kts 333°
2026-04-26 15:16 60.32238 24.97259 157 ft 18 kts 333°
2026-04-26 15:16 60.32340 24.97156 160 ft 14 kts 333°
2026-04-26 15:16 60.32390 24.97046 164 ft 9 kts 281°
2026-04-26 15:16 60.32370 24.96928 164 ft 0 kts 227°
2026-04-26 15:17 60.32353 24.96893 165 ft 12 kts 227°
2026-04-26 15:17 60.32313 24.96806 166 ft 2 kts 229°
2026-04-26 15:17 60.32307 24.96792 166 ft 0 kts 229°
2026-04-26 15:17 60.32287 24.96749 166 ft 7 kts 224°
2026-04-26 15:18 60.32247 24.96732 166 ft 6 kts 165°
2026-04-26 15:18 60.32187 24.96802 166 ft 11 kts 149°
2026-04-26 15:18 60.32155 24.96841 166 ft 4 kts 150°
2026-04-26 15:18 60.32120 24.96878 166 ft 7 kts 156°
2026-04-26 15:19 60.32071 24.96873 166 ft 7 kts 193°
2026-04-26 15:19 60.32027 24.96853 166 ft 6 kts 192°
2026-04-26 15:19 60.32019 24.96849 166 ft 2 kts 192°
2026-04-26 15:19 60.32007 24.96844 166 ft 0 kts 192°